Hanford, WA
on Monday, February 11, 2013

Monday
Previous Day Next Day
Daily Summary
 ActualAverage (KMWH)Record (KMWH)
Temperature
Mean Temperature °F 34°F  
Max Temperature 43°F 42°F 51°F (1984)
Min Temperature 18°F 26°F 10°F (1981)
Degree Days
Heating Degree Days 34 31  
Month to date heating degree days 349  
Since 1 July heating degree days 4023  
Cooling Degree Days 0 0  
Month to date cooling degree days 0  
Year to date cooling degree days 0  
Moisture
Dew Point 26°F   
Average Humidity 83    
Maximum Humidity 97    
Minimum Humidity 58    
Precipitation
Precipitation 0.00 in 0.03 in 0.13 in (2007)
Month to date precipitation 0.37  
Year to date precipitation 1.51  
Wind
Wind Speed 4 mph   
Max Wind Speed 7 mph   
Max Gust Speed mph   
Visibility 15 miles   
Events     

Key: T is trace of precipitation, MM is missing value
Source: NWS Daily Summary
Time(PST)TemperatureDew PointHumidity Pressure Visibility Wind DirectionWind SpeedGust SpeedPrecipitationEvents Conditions
12:50 AM 24.3°F 22.3°F 92% 30.21 in 15.0 miles ENE 3.5 mph - N/A   Clear
2:50 AM 24.1°F 23.2°F 96% 30.21 in 15.0 miles NW 6.9 mph - N/A   Clear
3:50 AM 25.2°F 24.1°F 96% 30.21 in 15.0 miles NW 4.6 mph - N/A   Clear
4:50 AM 21.4°F 20.7°F 97% 30.21 in 15.0 miles NE 4.6 mph - N/A   Clear
5:50 AM 22.6°F 21.7°F 96% 30.21 in 15.0 miles ESE 3.5 mph - N/A   Clear
6:50 AM 18.5°F 17.4°F 96% 30.22 in 15.0 miles WNW 4.6 mph - N/A   Clear
7:50 AM 24.3°F 23.5°F 97% 30.22 in 15.0 miles WNW 3.5 mph - N/A   Clear
8:50 AM 31.5°F 28.8°F 90% 30.22 in 15.0 miles NNW 4.6 mph - N/A   Partly Cloudy
9:50 AM 34.7°F 29.1°F 80% 30.24 in 15.0 miles NW 4.6 mph - N/A   Partly Cloudy
10:50 AM 38.8°F 30.2°F 71% 30.24 in 15.0 miles NE 4.6 mph - N/A   Partly Cloudy
11:50 AM 40.8°F 30.0°F 65% 30.24 in 15.0 miles ENE 4.6 mph - N/A   Partly Cloudy
12:50 PM 43.0°F 29.7°F 59% 30.24 in 15.0 miles NE 5.8 mph - N/A   Scattered Clouds
2:50 PM 43.7°F 29.8°F 58% 30.22 in 15.0 miles NE 3.5 mph - N/A   Overcast
3:50 PM 43.0°F 30.6°F 62% 30.23 in 15.0 miles East 4.6 mph - N/A   Overcast
4:50 PM 41.9°F 30.9°F 65% 30.23 in 15.0 miles East 5.8 mph - N/A   Overcast
5:50 PM 35.1°F 28.8°F 78% 30.25 in 15.0 miles ESE 4.6 mph - N/A   Overcast
6:50 PM 31.1°F 27.3°F 86% 30.26 in 15.0 miles SE 3.5 mph - N/A   Partly Cloudy
9:50 PM 26.1°F 24.6°F 94% 30.27 in 15.0 miles ENE 4.6 mph - N/A   Partly Cloudy
10:50 PM 25.9°F 23.0°F 89% 30.28 in 15.0 miles NNE 2.3 mph - N/A   Scattered Clouds
11:50 PM 27.9°F 26.4°F 94% 30.30 in 15.0 miles ESE 3.5 mph - N/A   Mostly Cloudy
Moon Phase
Feb. 11 Feb. 17 Feb. 25 Mar. 04 Mar. 11
Sunrise:07:07 AM (PST) Moon Rise:07:26 AM (PST)2/11
Sunset:05:18 PM (PST) Moon Set:07:31 PM (PST)2/11

Copyright © 2014 The Weather Underground, Inc.